Location: Koslow
(50.3020°N, 18.5663°E)
Time: 01:13:47
(UTC+00:00)

X-37B - Pass Details

Date: 09 August 2021
Orbit: 381 x 393 km, 45.0° (Epoch: 29 August)

Event Time Altitude Azimuth Distance (km) Brightness Sun altitude
Exits shadow 00:41:41 14° 117° (ESE) 1,187 3.0 -19.6°
Drops below altitude 10° 00:42:18 10° 110° (ESE) 1,398 3.5 -19.5°
Sets 00:44:34 0° 97° (E) 2,251 4.7 -19.3°
